Reflectivity
24 22 21 22 28 31 33 33 31 7 -19 -20 -19 -20 -20 -10 9 -19 -20 16 15 15 14 -20 -0 11 7 -20 -20 -20 -20 -20 -20 -20 -20 -20 -20 -20
6 31 28 27 21 28 33 33 35 10 -5 -5 -0 -15 -20 -20 6 -15 -13 11 14 13 17 -14 -3 -12 5 -20 -20 -20 -20 -20 -20 -20 -20 -20 -20 -20
14 6 21 28 33 19 28 35 35 29 26 -20 -13 -20 -20 -20 -20 -15 2 -11 13 16 13 -17 12 -20 -20 -20 -20 -20 -20 -20 -20 -20 -20 -20 -20 -20
7 13 18 24 32 13 28 32 33 35 30 -20 -20 -20 -20 -20 -20 10 -2 3 -3 17 14 14 15 13 -7 -20 -20 -20 -20 -20 -20 -20 -20 -20 -20 -20
-20 17 24 29 30 19 11 32 31 35 31 12 -20 -20 -20 -20 -20 -20 -2 10 9 19 15 12 15 12 10 -7 -20 -20 -20 -20 -20 -20 -20 -20 -20 -20
-20 26 32 23 27 21 -1 25 30 34 34 7 -15 -20 -20 -20 -20 -20 -20 -16 -15 3 15 15 15 16 14 9 -3 -20 -20 -20 -20 -20 -20 -20 -20 -20
-20 8 32 33 30 35 7 17 14 32 33 -5 -20 -20 -20 -20 -20 -20 -20 -20 -17 -6 2 0 -8 -15 -14 11 10 -2 -20 -20 -20 -20 -20 -20 -20 -20
-20 1 18 13 25 29 20 17 28 30 24 -0 -20 -20 6 -20 -20 -20 -20 -20 -20 -20 -20 -5 -20 -20 -20 -20 10 7 -20 -20 -20 -20 -20 -20 -20 -20
-20 2 35 13 24 24 20 26 28 33 31 20 -9 -20 -2 -18 -20 -20 -20 -20 -20 -20 -20 -9 -20 -20 -20 -17 14 11 -12 -20 -20 -20 -20 -20 -20 -20
-20 12 24 19 31 30 12 21 30 35 31 33 30 8 10 -8 -20 -20 -20 -20 -20 -20 -20 -20 -20 -20 -20 -20 14 10 11 7 -19 -20 -20 -20 -20 -20
-20 -6 22 33 31 36 25 19 0 27 35 32 14 7 -17 -20 -20 -20 -20 -20 -20 -20 -20 -20 -20 -20 -20 -20 -12 13 12 11 12 0 -20 -20 -20 -20
-20 6 29 35 27 24 26 22 23 26 32 23 20 10 -20 -20 -0 -20 -20 -20 -20 -20 -20 -20 -20 -20 -20 -20 -20 -20 -15 14 13 12 10 -20 -20 -20
8 15 32 33 27 28 33 18 17 6 24 22 10 8 -13 -18 -1 -20 -20 -20 -20 -20 -20 -20 -20 -20 -20 -20 -20 -20 -20 -10 -10 2 14 -6 -20 -20
-12 -10 27 29 23 16 27 24 22 23 25 21 23 2 -16 -20 -20 -20 -20 -20 -20 -20 -20 -20 -20 -20 -20 -20 -20 -20 -20 -20 -20 -20 -20 9 10 -19
-20 19 24 20 27 25 9 27 25 31 34 32 23 -4 -2 -19 -12 -20 -20 -20 -20 -20 -20 -20 -20 -20 -20 -20 -20 -20 -18 -20 -20 -20 -11 -5 -20 -20
3 13 24 30 34 26 30 25 24 26 28 23 30 27 30 4 26 -20 -20 -20 -20 -20 -20 -20 -20 -20 -20 -20 -20 -20 -20 -20 -20 -20 -20 2 -20 -20
3 12 15 25 32 27 27 23 30 30 31 28 33 29 29 15 25 -10 -20 -20 -20 -20 -20 -20 -20 -20 -20 -20 -20 -20 -20 -20 -20 -20 -20 -20 -20 -20
4 8 10 23 22 30 33 28 29 32 30 34 31 30 29 25 24 -0 -20 -20 -20 -20 -20 -20 -20 -20 -20 -20 -20 -20 -20 -20 -20 -20 -20 -20 -20 -20
7 5 5 1 -1 22 29 24 18 15 20 23 26 22 26 22 25 3 -10 -20 -20 -20 -20 -20 -20 -20 -20 -20 -20 -20 -20 -20 -20 -20 -20 -20 -20 -20
8 0 -1 -12 14 31 23 9 -0 11 -1 3 -5 16 23 18 16 13 -4 -20 -20 -20 -20 -20 -20 -20 -20 -20 -20 -20 -20 -20 -20 -20 -20 -20 -20 -20
14 1 -6 -0 1 3 -2 -15 -8 10 8 16 17 19 27 18 9 11 1 9 4 -20 -20 -20 -20 -20 -20 -20 -20 -20 -20 -20 -20 -20 -20 -20 -20 -20
10 5 -0 8 11 9 -5 23 -1 7 11 10 19 19 24 7 16 17 11 4 -18 -20 -13 -7 -17 -20 -20 -20 -20 -20 -20 -20 -20 -20 -20 -2 2 -14
-20 2 -6 -0 30 31 23 8 23 16 6 7 6 13 28 16 25 21 15 24 18 13 -20 -20 -20 -20 -20 -20 -20 -20 -20 -20 -20 -20 -1 10 6 2
Wind_Speed
10 11 11 11 11 14 14 16 17 12 9 10 7 12 11 13 15 14 12 13 15 18 18 21 19 16 15 14 13 12 11 10 9 7 7 6 6 8
10 13 11 11 13 13 17 14 14 15 13 11 12 15 12 11 18 14 12 14 15 13 19 21 23 17 14 13 13 12 11 10 9 7 6 6 5 7
12 12 15 13 12 14 15 15 13 12 13 11 10 14 16 15 14 14 11 11 9 12 22 21 19 23 19 15 14 13 12 10 9 7 5 5 4 5
14 14 15 13 18 18 17 20 16 14 12 17 15 16 17 16 17 13 11 10 9 15 20 20 20 21 21 18 15 13 12 10 9 8 6 4 4 4
12 15 18 20 16 19 20 19 16 12 12 15 12 13 13 13 16 13 11 10 8 19 21 20 19 20 20 20 17 14 12 12 11 10 8 6 4 3
15 14 16 18 18 23 21 22 18 15 14 14 12 13 14 16 13 13 9 10 9 10 14 16 18 19 20 20 20 15 13 13 13 11 9 7 5 3
16 15 16 17 19 20 18 20 21 16 16 15 13 13 13 15 16 12 13 9 8 8 9 8 9 9 9 15 12 19 16 15 14 13 11 9 6 4
15 14 16 20 23 28 31 32 28 20 18 16 14 16 18 18 15 14 13 12 9 4 9 7 9 8 8 8 15 17 18 16 15 14 12 10 8 6
16 13 13 14 19 21 27 29 29 30 28 22 22 21 21 20 20 19 17 16 10 5 9 7 7 8 8 9 19 19 19 17 16 14 13 12 10 7
15 14 13 14 17 20 22 22 22 19 20 17 21 24 21 22 23 21 16 13 6 9 10 7 5 5 7 6 21 21 22 20 17 16 14 13 11 9
16 13 13 16 24 21 22 22 21 17 10 13 16 14 15 29 23 15 13 14 6 7 12 8 5 4 5 6 8 21 21 21 20 19 17 15 13 11
16 15 23 18 27 23 21 21 21 18 16 12 9 14 15 20 24 21 18 17 13 3 7 9 6 6 3 4 7 9 10 20 20 19 18 16 15 4
12 12 11 28 28 25 18 20 23 19 20 14 10 11 13 16 14 13 16 16 16 3 10 10 4 6 3 3 3 8 9 10 10 12 19 18 16 10
12 10 12 19 22 19 17 27 26 23 14 13 10 10 13 13 13 12 14 8 9 5 15 17 6 9 9 4 3 4 6 7 9 9 8 12 17 16
10 13 15 17 20 16 20 25 28 15 15 14 13 11 11 12 12 7 8 9 8 7 12 13 6 10 9 5 5 5 7 6 8 9 8 9 6 4
19 11 10 11 17 14 15 18 15 14 15 14 13 11 8 9 10 10 9 9 7 3 3 6 7 9 5 4 5 7 6 6 8 8 8 7 6 6
16 9 7 8 8 11 13 14 13 13 13 12 11 11 11 11 9 8 8 8 7 8 5 3 7 7 5 7 3 8 8 3 8 8 7 7 5 6
15 9 9 6 6 9 12 13 12 17 13 13 12 13 13 13 11 10 8 9 10 9 8 8 8 5 3 4 5 7 4 5 7 8 8 7 5 4
12 11 11 10 8 8 12 14 12 12 13 13 14 13 13 12 16 13 11 10 9 10 10 9 11 9 7 5 0 2 8 5 8 7 6 3 5 6
12 12 11 10 7 10 12 12 11 11 12 12 12 13 13 14 14 13 13 13 12 9 10 9 11 11 11 9 6 2 2 11 9 9 6 4 5 13
11 12 12 10 7 9 11 12 13 13 13 12 11 11 12 14 14 13 13 18 17 11 13 13 12 12 8 8 5 3 1 11 8 10 10 7 4 4
9 7 10 11 8 8 9 10 11 12 12 12 12 12 12 13 14 15 14 15 14 12 10 8 11 9 4 4 5 9 5 3 10 15 8 5 8 9
10 9 10 9 10 10 9 10 11 11 12 12 12 12 12 12 12 13 13 13 12 11 12 11 10 8 6 5 9 10 11 11 8 8 6 10 10 9
Wind_Direction
243 245 264 231 186 176 168 172 163 160 170 180 156 171 163 154 162 167 172 169 182 181 170 150 144 147 166 155 151 149 142 141 134 122 102 82 55 43
258 256 261 269 179 184 164 170 182 173 167 171 170 160 163 163 164 169 166 168 181 186 156 153 148 143 169 150 154 156 158 155 146 135 116 87 60 44
252 260 257 281 185 172 169 167 175 176 180 163 159 163 164 165 172 163 158 173 183 167 158 156 159 150 152 156 159 169 170 165 157 148 126 101 72 49
241 250 254 249 198 178 175 172 175 177 173 165 164 166 170 171 166 162 166 170 169 158 161 160 158 157 153 159 165 173 176 172 166 156 144 123 87 54
234 233 244 246 246 175 177 171 169 172 168 171 161 168 163 159 168 162 171 161 151 156 160 161 161 161 161 164 166 174 177 174 174 169 161 151 117 68
239 247 236 240 271 182 183 175 169 165 169 171 160 164 166 167 169 157 166 163 151 166 170 171 168 170 173 174 165 172 174 180 184 178 174 165 143 109
239 236 249 259 255 222 177 175 167 165 166 164 163 165 166 166 174 173 167 160 169 161 162 171 171 174 179 178 174 162 175 185 190 188 184 179 168 156
238 239 249 251 249 271 179 175 166 166 165 161 168 172 175 176 170 170 165 170 175 192 161 164 167 176 175 178 179 174 174 190 198 195 190 188 185 176
231 230 238 234 241 252 176 173 170 168 176 167 167 179 179 176 171 175 180 181 175 162 157 164 175 180 178 183 180 179 177 189 199 201 196 194 191 187
234 224 238 239 236 251 171 173 174 176 180 180 178 175 179 178 180 179 168 164 100 156 169 174 181 179 174 184 185 184 183 184 194 201 199 198 195 188
231 229 227 233 231 261 176 172 173 175 174 192 169 164 165 179 169 158 162 167 147 175 192 167 177 148 170 184 190 193 189 185 190 194 199 198 194 186
221 220 234 234 248 278 185 170 171 174 158 164 157 150 155 172 176 177 164 174 166 137 207 172 154 138 180 208 183 194 189 193 190 194 194 196 192 155
214 208 215 230 230 244 222 178 178 161 166 160 151 151 158 168 183 179 176 176 172 165 174 161 150 161 138 134 169 194 186 185 185 190 193 193 195 186
209 210 214 223 229 239 268 181 167 159 163 160 150 153 161 169 181 179 175 174 181 149 170 172 149 169 169 136 159 163 184 182 174 175 176 186 202 200
230 213 211 209 214 231 246 173 155 165 163 160 166 164 169 167 164 137 117 96 86 123 165 180 141 177 168 142 145 165 156 189 178 169 166 172 173 149
216 232 212 197 205 238 206 160 162 165 166 165 167 163 147 150 165 159 146 137 116 68 65 144 133 158 147 124 130 158 169 174 171 171 162 152 146 148
205 204 203 200 203 217 189 170 162 162 165 164 157 156 157 157 156 161 153 155 157 146 132 93 96 85 74 134 116 165 163 139 176 155 143 151 154 156
205 198 205 205 188 218 176 164 166 165 163 156 160 162 160 163 156 157 157 174 166 159 153 152 135 110 64 21 57 152 151 143 165 155 156 153 156 159
209 200 192 203 204 219 175 165 164 166 157 162 162 166 165 162 159 165 168 169 169 164 161 159 166 164 160 165 345 103 153 150 144 153 162 148 153 163
199 206 203 192 197 200 170 160 158 154 162 161 165 166 163 161 166 170 174 175 172 165 159 169 179 185 184 173 147 155 181 149 157 157 136 84 73 136
203 199 192 185 193 171 165 159 157 164 161 164 167 163 169 169 176 173 175 175 173 171 172 184 187 146 112 103 90 121 55 159 164 158 146 130 135 141
211 196 186 178 167 160 159 158 162 163 160 170 169 167 177 175 174 173 173 176 181 179 171 147 146 145 143 145 132 139 127 104 125 143 143 143 165 178
205 209 175 164 164 161 158 164 163 165 171 175 169 172 174 175 178 179 175 178 169 162 152 148 153 167 162 147 135 146 145 145 143 128 100 95 92 108